This is the latest recevied weather packets stored in our database for station/object ED5YAL-15. If no packets are shown the sender has not sent any weather packets the latest 10 day(s).
| Time | Temp. | Humidity | Pressure | Rain* | Wind** | Luminosity | Snow |
|---|---|---|---|---|---|---|---|
| 1777852000 | 15° C | 62% | 1017.6 hPa | - | - | - | - |
| 1777851099 | 15.56° C | 62% | 1017.7 hPa | - | - | - | - |
| 1777850199 | 15° C | 62% | 1017.7 hPa | - | - | - | - |
| 1777849298 | 15° C | 62% | 1017.7 hPa | - | - | - | - |
| 1777848397 | 15° C | 62% | 1017.8 hPa | - | - | - | - |
| 1777847496 | 15° C | 62% | 1018 hPa | - | - | - | - |
| 1777846595 | 15° C | 61% | 1018.1 hPa | - | - | - | - |
| 1777845695 | 15.56° C | 61% | 1018.1 hPa | - | - | - | - |
| 1777844962 | 15.56° C | 61% | 1018.2 hPa | - | - | - | - |
| 1777844794 | 15.56° C | 61% | 1018.2 hPa | - | - | - | - |
| 1777843893 | 15.56° C | 61% | 1018.3 hPa | - | - | - | - |
| 1777842992 | 15.56° C | 61% | 1018.2 hPa | - | - | - | - |
| 1777842091 | 15.56° C | 61% | 1018.2 hPa | - | - | - | - |
| 1777841191 | 15.56° C | 61% | 1018.4 hPa | - | - | - | - |
| 1777840290 | 15.56° C | 60% | 1017.9 hPa | - | - | - | - |
| 1777839389 | 17.78° C | 60% | 1017.8 hPa | - | - | - | - |
| 1777838507 | 15.56° C | 60% | 1017.7 hPa | - | - | - | - |
| 1777837639 | 16.11° C | 60% | 1017.6 hPa | - | - | - | - |
| 1777837606 | 16.11° C | 60% | 1017.6 hPa | - | - | - | - |
| 1777836706 | 16.11° C | 59% | 1017.4 hPa | - | - | - | - |
| 1777835805 | 16.67° C | 59% | 1017.4 hPa | - | - | - | - |
| 1777834904 | 16.67° C | 59% | 1017.3 hPa | - | - | - | - |
| 1777834003 | 17.78° C | 58% | 1017.3 hPa | - | - | - | - |
| 1777833105 | 18.89° C | 59% | 1016.9 hPa | - | - | - | - |
| 1777832201 | 18.89° C | 59% | 1016.8 hPa | - | - | - | - |
* Rain since midnight (hover to see other rain measurements)
** Current wind speed in m/s (hover to see current wind gust speed)